TimeCST,TemperatureF,Dew PointF,Humidity,Sea Level PressureIn,VisibilityMPH,Wind Direction,Wind SpeedMPH,Gust SpeedMPH,PrecipitationIn,Events,Conditions,WindDirDegrees,DateUTC
12:53 AM,39.0,25.0,57,30.28,10.0,South,9.2,-,N/A,,Clear,190,2012-01-14 06:53:00
1:53 AM,37.0,25.0,62,30.28,10.0,South,8.1,-,N/A,,Clear,190,2012-01-14 07:53:00
2:53 AM,37.0,25.0,62,30.28,10.0,SSW,6.9,-,N/A,,Clear,210,2012-01-14 08:53:00
3:53 AM,35.1,25.0,67,30.27,10.0,South,4.6,-,N/A,,Clear,180,2012-01-14 09:53:00
4:53 AM,37.9,25.0,60,30.26,10.0,SSW,9.2,-,N/A,,Clear,210,2012-01-14 10:53:00
5:53 AM,42.1,21.9,45,30.29,10.0,SW,11.5,-,N/A,,Clear,220,2012-01-14 11:53:00
6:53 AM,39.9,23.0,51,30.30,10.0,SW,10.4,-,N/A,,Clear,220,2012-01-14 12:53:00
7:53 AM,39.9,23.0,51,30.30,10.0,SW,11.5,-,N/A,,Clear,220,2012-01-14 13:53:00
8:53 AM,43.0,24.1,47,30.32,10.0,SW,10.4,-,N/A,,Clear,230,2012-01-14 14:53:00
9:53 AM,46.9,25.0,42,30.35,10.0,WSW,9.2,-,N/A,,Clear,250,2012-01-14 15:53:00
10:53 AM,52.0,26.1,37,30.35,10.0,WSW,10.4,-,N/A,,Clear,250,2012-01-14 16:53:00
11:53 AM,55.9,28.0,34,30.33,10.0,SW,8.1,16.1,N/A,,Clear,230,2012-01-14 17:53:00
12:53 PM,59.0,28.0,31,30.31,10.0,West,6.9,-,N/A,,Clear,280,2012-01-14 18:53:00
1:53 PM,62.1,30.0,30,30.29,10.0,WSW,9.2,-,N/A,,Clear,240,2012-01-14 19:53:00
2:53 PM,63.0,27.0,26,30.28,10.0,West,4.6,-,N/A,,Clear,260,2012-01-14 20:53:00
3:53 PM,64.4,26.6,24,30.28,10.0,SSW,9.2,-,N/A,,Clear,210,2012-01-14 21:53:00
4:53 PM,63.0,24.1,23,30.28,10.0,SW,5.8,-,N/A,,Clear,220,2012-01-14 22:53:00
5:53 PM,57.0,24.1,28,30.28,10.0,SW,3.5,-,N/A,,Clear,220,2012-01-14 23:53:00
6:53 PM,55.0,26.1,33,30.30,10.0,SW,5.8,-,N/A,,Clear,220,2012-01-15 00:53:00
7:53 PM,52.0,25.0,35,30.32,10.0,SW,3.5,-,N/A,,Clear,230,2012-01-15 01:53:00
8:53 PM,41.0,30.9,67,30.32,10.0,South,6.9,-,N/A,,Clear,170,2012-01-15 02:53:00
9:53 PM,43.0,28.9,58,30.33,10.0,South,6.9,-,N/A,,Clear,180,2012-01-15 03:53:00
10:53 PM,43.0,28.9,58,30.33,10.0,South,6.9,-,N/A,,Clear,170,2012-01-15 04:53:00
11:53 PM,42.1,30.0,62,30.32,10.0,North,-9999.0,-,N/A,,Clear,0,2012-01-15 05:53:00